Location: Invercargill
(46.4000°S, 168.3500°E)
Time: 19:30:38
(UTC+12:00)

ATLAS 3B R/B - Pass Details

Date: 14 May 2021
Orbit: 1006 x 1189 km, 63.8° (Epoch: 10 June)

Event Time Altitude Azimuth Distance (km) Brightness Sun altitude
Rises 20:19:47 0° 297° (WNW) 4,084 6.6 -30.0°
Reaches altitude 10° 20:22:43 10° 290° (WNW) 3,117 5.9 -30.5°
Maximum altitude 20:29:49 44° 219° (SW) 1,566 3.7 -31.7°
Enters shadow 20:32:46 31° 170° (S) 1,914 3.9 -32.2°
